Weather History for Jackson Hawkins Field, MS

Change the Weather History Date:

Tuesday, October 25, 2011

  Actual Average (KJAN) Record (KJAN)
Temperature  
Mean Temperature 63 °F 62 °F  
Max Temperature 81 °F 75 °F 92 °F (1921)
Min Temperature 46 °F 50 °F 31 °F (1965)
Degree Days  
Heating Degree Days 2 5  
Month to date heating degree days 67  
Since 1 July heating degree days 74  
Cooling Degree Days 0 2  
Month to date cooling degree days 94  
Year to date cooling degree days 2220  
Growing Degree Days 13 (Base 50)    
Moisture  
Dew Point 49 °F    
Average Humidity 68    
Maximum Humidity 100    
Minimum Humidity 30    
Precipitation  
Precipitation 0.00 in 0.13 in 2.75 in (1981)
Month to date precipitation 3.15  
Year to date precipitation 43.46  
Sea Level Pressure  
Sea Level Pressure 30.15 in    
Wind  
Wind Speed 2 mph (SSE)    
Max Wind Speed 9 mph    
Max Gust Speed -    
Visibility 8 miles    
Events      
T = Trace of Precipitation, MM = Missing Value Source: NWS Daily Summary

Daily Weather History Graph

Daily Weather History Graph

Search for Another Location

Airport:

Trip Planner

Search our weather history database for the weather conditions in past years. The results will help you decide how hot, cold, wet, or windy it might be!

Date:

Astronomy

Oct. 25, 2011 Rise Set
Actual Time 7:12 AM CDT 6:17 PM CDT
Civil Twilight 6:47 AM CDT 6:42 PM CDT
Nautical Twilight 6:18 AM CDT 7:11 PM CDT
Astronomical Twilight 5:49 AM CDT 7:39 PM CDT
Moon 5:46 AM CDT (10/25) 5:18 PM CDT (10/25)
Length of Visible Light 11h 55m
Length of Day
11h 05m
Waning Crescent, 2% of the Moon is Illuminated
Oct 25
Waning Crescent
Oct 26
New
Nov 2
First Quarter
Nov 10
Full
Nov 18
Last Quarter

Hourly Weather History & Observations

Time (CDT) Temp. Dew Point Humidity Pressure Visibility Wind Dir Wind Speed Gust Speed Precip Events Conditions
12:53 AM 52.0 °F 50.0 °F 93% 30.20 in 10.0 mi Calm Calm - N/A   Clear
2:53 AM 48.9 °F 48.0 °F 97% 30.19 in 4.0 mi Calm Calm - N/A   Clear
3:53 AM 48.0 °F 46.9 °F 96% 30.19 in 7.0 mi Calm Calm - N/A   Clear
4:36 AM 48.2 °F 46.4 °F 93% 30.20 in 1.8 mi Calm Calm - N/A   Clear
4:53 AM 46.9 °F 46.0 °F 97% 30.18 in 1.2 mi Calm Calm - N/A   Clear
4:59 AM 46.4 °F 46.4 °F 100% 30.20 in 4.0 mi Calm Calm - N/A   Clear
5:07 AM 48.2 °F 46.4 °F 93% 30.20 in 2.0 mi Calm Calm - N/A   Clear
5:19 AM 46.4 °F 46.4 °F 100% 30.20 in 5.0 mi Calm Calm - N/A   Clear
5:53 AM 46.9 °F 46.0 °F 97% 30.19 in 8.0 mi Calm Calm - N/A   Clear
7:53 AM 48.0 °F 46.0 °F 93% 30.22 in 9.0 mi Calm Calm - N/A   Clear
8:53 AM 55.9 °F 52.0 °F 87% 30.22 in 10.0 mi SSE 4.6 mph - N/A   Clear
9:53 AM 64.0 °F 51.1 °F 63% 30.23 in 10.0 mi SE 6.9 mph - N/A   Clear
10:53 AM 70.0 °F 53.1 °F 55% 30.22 in 10.0 mi SE 5.8 mph - N/A   Clear
11:53 AM 73.9 °F 54.0 °F 50% 30.20 in 10.0 mi SSE 9.2 mph - N/A   Clear
12:53 PM 77.0 °F 53.1 °F 43% 30.17 in 10.0 mi SSE 4.6 mph - N/A   Clear
1:53 PM 79.0 °F 50.0 °F 36% 30.13 in 10.0 mi SSW 5.8 mph - N/A   Clear
2:53 PM 80.1 °F 46.9 °F 31% 30.10 in 10.0 mi South 6.9 mph - N/A   Clear
3:53 PM 80.1 °F 48.0 °F 32% 30.08 in 10.0 mi Variable 6.9 mph - N/A   Clear
4:53 PM 79.0 °F 45.0 °F 30% 30.06 in 10.0 mi South 8.1 mph - N/A   Clear
5:53 PM 73.9 °F 46.9 °F 38% 30.06 in 10.0 mi SSE 5.8 mph - N/A   Clear
6:53 PM 72.0 °F 45.0 °F 38% 30.07 in 10.0 mi SE 3.5 mph - N/A   Clear
7:53 PM 66.0 °F 46.9 °F 50% 30.07 in 10.0 mi SE 5.8 mph - N/A   Clear
8:53 PM 64.9 °F 48.9 °F 56% 30.07 in 10.0 mi South 4.6 mph - N/A   Clear
9:53 PM 63.0 °F 50.0 °F 63% 30.08 in 10.0 mi South 4.6 mph - N/A   Clear
10:53 PM 60.1 °F 50.0 °F 69% 30.08 in 10.0 mi South 5.8 mph - N/A   Clear
11:53 PM 62.1 °F 53.1 °F 72% 30.08 in 10.0 mi South 8.1 mph - N/A   Clear